Wind_Speed
18 18 17 17 16 15 15 15 15 13 13 13 14 15 15 17 17 19 21 22 23 24 25 26 26 27 29 31 30 29 27 25 24 22 20 19 18 17 17 17 18 18 19 19 20 20 20 19 18 17 16 16 16 16 16 16 16 16 16 16 15 15 15 16 16 17 18 18 17
18 18 18 18 17 17 16 16 16 15 14 15 16 16 16 15 16 18 19 20 22 23 24 25 26 27 30 31 30 29 27 26 24 22 20 19 18 18 17 17 17 18 18 19 20 20 20 19 17 16 15 16 16 16 16 16 17 16 16 16 15 15 15 15 15 16 17 17 16
18 18 18 18 18 18 18 17 18 17 17 17 17 17 16 15 16 17 18 19 20 22 23 24 26 28 30 30 30 29 27 26 24 22 20 19 18 18 17 17 17 18 18 19 20 20 19 19 17 16 15 15 16 16 15 16 17 16 16 16 15 14 14 14 14 15 15 16 16
17 17 17 18 18 19 19 19 19 19 19 19 19 17 16 15 15 16 18 19 21 22 23 25 27 28 29 30 30 28 27 25 24 22 20 19 18 18 18 17 17 18 18 19 19 19 19 19 17 16 15 15 16 16 15 15 16 16 16 16 15 14 13 13 13 14 14 14 15
15 15 16 17 18 19 20 20 21 20 20 20 19 18 17 16 15 16 18 19 20 22 24 26 28 28 29 30 29 28 26 25 24 22 20 18 18 18 18 17 17 18 18 19 20 20 19 19 17 15 15 15 16 16 15 16 16 16 15 15 14 14 14 14 13 14 14 14 14
13 14 15 16 17 18 19 21 21 21 21 20 20 19 17 16 16 17 18 19 20 23 26 27 28 29 29 29 28 27 26 24 22 21 19 19 18 18 18 18 18 18 19 19 20 20 20 19 16 15 15 15 15 15 15 16 16 15 15 14 14 15 15 14 14 15 15 15 15
13 14 14 15 16 17 18 20 21 21 21 21 20 19 18 17 17 19 19 20 21 23 26 27 28 28 29 28 28 27 25 23 21 20 19 19 19 19 19 18 18 18 19 20 20 20 20 19 16 15 15 15 15 15 16 16 16 15 15 14 14 15 16 15 16 16 16 16 16
12 13 14 14 15 17 18 19 20 20 20 21 21 20 20 19 20 20 20 20 21 23 25 27 27 28 28 28 27 26 25 22 21 20 20 20 20 20 19 19 19 19 19 19 20 20 19 18 16 15 15 14 14 15 16 16 16 16 16 15 15 16 17 17 17 18 18 18 18
11 12 13 13 15 16 17 18 19 20 20 20 20 21 21 21 21 21 21 21 22 23 24 26 26 26 27 27 27 25 23 21 20 20 20 20 20 20 20 19 19 19 18 19 19 19 19 17 16 15 15 14 14 15 16 17 17 17 16 15 16 16 17 17 18 19 19 19 19
9 11 12 13 14 15 17 17 18 19 20 20 20 20 21 21 21 21 21 22 23 23 23 23 24 25 26 27 26 24 21 20 20 20 20 20 20 20 20 19 19 19 18 18 19 19 19 17 15 15 14 14 14 15 15 17 18 18 16 15 15 17 17 17 18 19 19 19 19
9 8 10 12 13 15 16 16 17 18 19 20 20 20 21 21 21 21 21 22 23 22 21 22 23 24 25 25 23 21 20 19 19 20 20 20 20 20 20 19 19 19 19 18 18 18 18 16 15 15 14 14 14 15 15 17 18 18 17 15 16 17 18 18 18 19 19 19 19
17 10 7 8 10 12 13 14 15 17 18 19 19 20 20 21 21 21 21 23 22 21 21 22 23 23 23 22 21 20 19 19 20 20 20 20 20 21 20 20 20 19 19 19 18 18 17 16 15 15 15 15 14 14 16 17 18 18 17 16 16 18 19 19 19 19 19 19 19
27 20 12 6 7 8 9 11 13 14 16 17 18 19 19 20 21 22 22 23 21 21 21 22 22 22 21 20 19 19 19 19 19 19 19 20 20 20 20 20 19 19 19 18 18 17 17 16 15 16 16 15 14 14 16 18 19 19 18 17 18 19 20 21 21 20 20 19 19
32 29 23 15 8 7 8 9 10 12 14 15 16 17 18 19 21 22 23 22 21 20 20 20 20 20 19 19 19 19 19 19 19 19 19 19 20 20 20 19 20 19 19 18 18 17 17 16 16 16 16 16 15 15 17 19 20 20 20 19 19 20 21 21 22 21 20 20 19
34 33 30 25 17 10 7 8 9 11 12 13 14 15 17 18 20 21 22 21 20 20 19 19 18 17 18 18 19 19 19 19 19 19 19 19 20 20 20 19 20 19 19 18 18 17 17 17 16 17 17 16 16 16 18 20 20 21 21 20 20 20 20 21 21 21 20 20 20
33 33 32 30 26 19 11 7 8 10 10 11 12 13 15 16 18 19 20 20 20 20 19 18 16 16 16 17 18 19 19 19 19 19 19 19 20 20 20 19 20 20 19 18 18 17 17 17 17 17 17 17 17 17 19 20 21 21 21 21 20 20 20 20 20 21 21 20 19
33 32 32 31 29 26 20 12 6 7 9 10 11 11 13 14 16 17 18 19 20 19 19 18 16 15 14 16 17 18 18 18 18 19 19 19 20 20 20 19 20 20 19 18 18 18 17 17 17 17 18 18 18 18 20 21 21 21 21 20 20 20 20 20 20 21 20 20 19
32 32 31 30 29 27 25 21 14 7 7 8 9 10 11 12 13 15 16 17 18 19 19 18 16 14 14 15 16 17 17 18 18 19 19 19 20 20 20 19 19 19 19 19 18 18 18 17 17 18 18 18 18 19 20 21 21 21 21 20 20 20 20 20 20 20 20 19 19
30 30 30 29 28 27 26 25 21 15 8 6 8 9 10 11 12 13 14 15 17 18 18 17 16 14 13 14 15 16 16 17 18 19 19 19 19 19 19 19 19 19 19 18 18 18 18 18 17 18 18 18 18 19 19 20 20 20 20 20 19 19 19 19 19 19 19 19 19
30 29 28 27 27 26 25 25 24 22 17 10 6 7 9 11 12 13 13 14 16 16 16 16 15 13 13 14 15 15 16 16 17 18 18 18 19 19 18 18 18 18 18 18 18 17 18 17 17 17 18 19 19 18 19 19 19 18 18 18 19 19 19 19 19 18 18 18 18
30 29 28 27 27 26 26 25 24 24 22 19 13 6 6 9 10 11 13 14 15 16 15 14 14 13 13 14 15 15 15 15 16 17 17 18 18 18 18 18 18 18 18 17 17 17 17 17 17 17 18 19 19 19 18 18 17 17 17 17 17 18 18 18 18 18 17 18 18
29 28 28 28 28 28 27 27 26 25 24 23 19 14 7 4 7 9 11 13 15 15 14 13 13 13 13 14 14 15 15 14 15 16 17 17 17 17 17 17 17 17 17 17 17 17 17 17 17 17 17 18 19 19 18 17 16 16 16 17 17 17 17 17 17 17 17 17 17
28 28 28 27 29 29 29 29 28 26 25 24 22 19 15 8 2 5 8 10 12 13 14 13 12 12 13 13 14 14 14 14 15 15 16 16 16 16 17 16 16 17 17 17 18 18 18 18 17 17 18 18 18 18 18 17 16 16 17 17 17 17 17 17 16 16 16 16 16
27 27 27 28 29 29 29 29 28 27 25 24 23 21 19 14 8 1 4 7 9 10 11 11 11 12 12 12 13 13 13 14 14 15 15 15 15 15 15 15 16 17 17 17 19 19 19 19 18 18 18 18 18 18 17 16 16 17 17 17 17 16 16 16 16 15 15 15 15
26 27 28 27 28 28 29 28 28 27 26 24 23 22 21 18 13 7 2 4 7 8 9 9 10 10 10 11 12 12 13 13 14 15 15 15 15 15 15 14 15 15 16 18 20 22 22 21 20 19 19 18 17 16 16 17 17 17 17 17 16 16 15 15 15 15 14 14 14
26 27 27 27 27 27 27 27 26 26 25 25 24 23 22 20 17 12 7 3 5 8 9 9 9 9 9 10 11 12 12 12 13 14 16 16 16 15 15 14 14 14 16 18 21 23 24 23 23 21 20 18 16 15 15 17 17 17 17 16 16 16 15 14 14 14 14 14 14
25 26 26 27 26 26 26 25 25 25 25 25 24 23 22 21 19 16 12 6 5 7 9 10 9 9 9 9 10 11 12 12 12 14 15 15 16 16 15 15 14 15 17 19 22 23 24 24 24 23 21 19 17 16 16 17 18 18 17 16 16 16 15 14 14 14 14 13 13
23 24 25 26 25 25 25 25 25 24 24 23 23 22 21 20 20 18 15 11 6 5 8 10 9 9 9 9 10 11 12 12 12 13 13 14 14 15 16 16 16 17 19 20 22 23 24 24 25 24 23 21 19 18 18 18 18 18 17 16 16 16 16 15 14 14 14 14 13
21 22 23 24 24 24 24 24 23 23 22 22 21 21 20 19 19 18 17 14 10 6 5 8 8 8 9 9 10 11 12 12 12 12 13 13 14 15 16 17 17 18 20 21 22 22 23 24 25 26 25 24 21 20 20 20 19 18 17 16 17 17 17 15 14 14 14 14 14
20 21 21 21 22 23 23 22 22 21 21 20 20 20 20 19 18 18 17 16 14 10 6 6 7 8 9 9 10 11 12 12 12 12 12 13 14 15 16 18 19 20 21 21 22 23 24 25 26 27 27 26 23 22 21 20 19 19 18 17 18 18 17 16 15 15 15 14 15
20 20 20 20 20 21 22 22 21 20 20 19 19 19 19 18 18 17 16 16 15 13 9 5 6 8 9 10 10 11 11 12 13 13 13 13 14 15 17 19 21 22 22 22 23 23 24 25 26 27 28 27 25 22 20 19 19 19 19 18 18 18 17 16 15 15 16 15 15
20 20 19 19 19 20 21 21 21 20 19 19 18 18 18 17 17 16 16 15 15 14 13 10 6 7 9 10 11 12 12 13 13 13 14 14 14 16 18 20 21 22 23 23 24 24 25 26 27 27 28 28 26 22 19 18 18 18 18 18 18 18 17 16 16 16 16 16 16
20 20 19 18 18 18 20 20 20 20 19 18 17 17 17 17 16 16 15 15 15 15 14 13 11 8 7 9 11 13 14 14 14 15 16 16 16 17 18 20 20 22 23 24 24 25 25 26 27 28 28 29 27 23 19 17 16 16 17 17 17 17 17 16 16 17 17 17 16
20 20 19 18 17 17 18 19 19 19 18 17 17 16 16 16 16 16 16 16 15 15 14 13 13 11 9 8 10 13 15 15 16 16 17 18 18 18 19 20 20 21 22 24 25 25 25 26 27 27 28 29 27 22 18 17 16 16 17 17 16 16 17 17 17 18 18 17 16
20 20 19 19 18 17 16 17 17 17 17 17 16 16 16 16 16 16 16 16 16 14 14 13 13 12 10 8 8 11 14 15 16 16 17 18 19 20 20 21 21 22 23 24 24 25 25 26 27 28 28 29 27 22 19 18 17 17 17 17 16 16 16 16 17 17 17 17 16
19 19 19 19 18 17 16 16 16 16 16 16 16 16 16 16 16 16 16 17 16 15 14 14 14 13 12 11 9 8 11 14 16 16 17 18 19 20 21 22 22 23 24 25 25 25 25 26 27 28 29 29 26 22 19 19 18 17 17 16 16 15 16 16 16 17 17 17 17
19 18 19 18 18 18 17 16 15 15 15 15 15 15 16 16 16 16 16 17 16 16 16 15 14 14 13 13 11 9 9 12 15 17 17 18 19 20 21 22 22 23 25 25 25 25 25 26 27 29 29 29 25 22 19 18 17 16 16 15 15 15 16 16 16 17 17 17 17
18 18 18 18 18 17 17 16 15 15 15 15 15 15 16 16 16 16 16 16 15 15 15 16 15 15 14 14 13 12 10 10 13 16 18 18 19 20 21 21 21 22 24 24 24 24 25 26 27 29 30 29 25 21 19 18 17 16 16 15 15 15 15 16 16 16 16 17 17
18 17 17 17 17 17 17 16 16 15 15 15 16 16 16 16 16 16 16 15 14 14 14 15 15 15 15 15 14 13 12 10 11 14 17 18 19 20 21 21 21 22 23 23 23 23 23 25 27 29 29 28 24 21 19 18 17 16 16 15 15 15 15 15 15 15 15 16 17
17 17 17 16 16 16 16 16 16 16 16 16 16 17 17 16 16 16 16 15 14 13 14 14 15 15 15 15 15 14 13 12 11 12 15 17 18 20 21 21 21 21 22 23 22 22 22 24 26 28 29 27 24 20 18 18 17 17 16 15 15 15 14 14 14 14 15 16 16
17 17 17 16 16 16 16 16 16 16 16 17 17 17 18 18 17 16 16 15 14 14 14 14 15 15 15 15 15 15 14 13 12 12 14 16 18 19 20 21 21 21 22 23 22 22 21 22 24 27 28 27 24 21 19 19 18 17 16 16 16 16 15 14 14 14 14 15 16
Wind_Direction
147 148 149 150 149 144 142 144 147 145 143 146 152 157 161 163 162 161 160 159 157 157 158 159 161 161 162 163 162 160 160 161 163 165 167 168 169 170 172 173 175 176 176 177 177 177 177 176 175 175 176 178 179 181 182 183 185 186 188 190 193 194 195 196 198 199 200 201 202
150 151 149 148 147 145 144 145 148 147 144 147 152 156 160 160 159 158 158 157 156 154 154 156 158 159 160 160 160 159 159 160 162 164 166 168 169 171 172 174 176 177 177 177 177 177 177 177 176 175 176 178 180 181 182 184 185 186 187 189 191 193 194 196 198 199 199 200 200
150 151 151 150 148 146 146 148 151 150 148 150 153 156 158 158 158 157 157 155 154 153 152 153 156 158 158 158 158 159 159 161 162 163 165 167 169 171 173 175 176 177 177 177 178 178 178 178 178 177 178 179 181 181 182 184 185 186 187 189 190 191 192 194 196 196 197 198 199
145 148 149 149 148 148 148 149 150 150 151 154 155 156 157 157 157 157 156 154 154 154 153 153 155 157 158 158 158 158 160 162 163 163 164 167 169 171 173 175 175 176 178 179 179 179 179 179 179 180 180 181 182 183 183 183 184 185 187 188 189 190 191 192 193 193 193 195 196
136 141 145 147 149 149 149 149 150 150 152 154 155 157 158 159 156 155 155 155 155 156 156 156 156 157 158 158 158 158 160 162 163 164 164 166 169 171 173 175 176 177 179 180 180 179 179 179 180 181 183 183 185 185 184 182 183 184 186 188 189 191 192 192 192 192 192 193 195
131 137 141 144 148 149 149 149 150 151 153 155 156 157 159 160 158 157 156 157 158 159 159 159 158 158 158 158 158 158 160 162 164 165 165 167 168 171 173 175 177 179 180 181 181 180 179 180 181 183 184 185 187 187 185 183 183 183 185 187 190 194 195 194 194 194 194 195 196
129 135 139 142 144 146 147 149 150 151 153 155 157 159 161 162 161 160 159 159 159 160 160 160 159 159 159 158 158 159 161 162 165 166 167 167 169 171 174 176 179 180 181 182 181 181 181 181 183 184 185 186 187 188 186 184 183 184 185 188 192 196 197 197 198 199 199 200 200
127 132 136 139 142 144 147 149 150 151 152 155 158 161 163 163 163 162 161 160 160 161 161 161 161 161 161 160 160 161 162 163 165 167 168 168 169 172 175 177 180 181 182 182 182 182 182 183 186 186 186 186 188 188 187 186 185 186 187 190 194 198 200 200 203 204 205 204 204
121 126 130 133 138 142 146 149 151 152 152 154 158 161 163 163 163 163 163 162 162 162 162 161 162 163 163 162 163 164 164 165 167 168 169 169 170 172 175 178 180 181 182 182 182 182 183 185 187 188 187 187 188 188 187 186 187 188 190 192 195 199 201 203 206 208 209 208 207
105 118 124 129 135 141 145 148 151 152 153 154 156 159 160 162 163 164 164 164 164 163 161 161 162 163 163 163 164 165 166 168 169 169 168 170 171 173 176 178 180 181 181 181 182 182 183 185 188 188 188 188 188 187 186 187 189 190 192 194 196 199 201 203 207 209 210 209 209
63 102 122 129 136 141 145 147 149 152 153 153 154 156 158 160 161 162 163 163 163 162 161 161 162 161 161 162 164 166 169 171 170 169 169 172 174 176 178 179 181 181 181 181 181 182 184 186 188 187 187 187 187 186 186 187 190 192 193 195 197 199 200 202 205 207 208 209 209
33 51 96 125 133 138 142 144 146 149 151 151 153 155 156 158 159 159 160 160 160 161 161 161 162 161 160 161 164 168 171 171 170 170 171 173 176 178 180 181 181 181 181 180 181 182 184 186 187 186 185 185 185 185 186 188 191 192 193 194 196 198 199 201 203 205 207 208 208
30 33 42 79 116 128 133 137 142 145 148 150 152 154 155 156 157 158 158 159 160 161 161 161 161 161 160 163 167 170 171 170 170 170 172 175 177 180 181 182 182 181 181 180 181 182 184 186 186 186 185 185 184 185 187 189 191 191 191 193 195 198 199 201 202 204 205 206 206
30 30 31 38 64 100 117 127 136 142 146 148 150 152 153 155 157 158 159 159 160 160 160 160 160 160 162 167 170 171 170 169 169 171 173 176 179 181 182 182 182 181 181 180 181 183 184 185 186 186 185 185 185 186 188 191 191 192 192 193 196 198 200 201 203 203 203 203 204
28 28 29 30 35 52 88 115 129 138 143 146 148 150 152 154 157 160 160 159 159 159 158 158 158 161 166 171 172 171 169 169 170 172 175 178 180 181 182 182 182 181 180 180 182 184 185 186 186 186 186 186 186 187 190 192 193 193 194 195 197 199 199 200 201 202 202 202 202
24 25 26 27 27 29 40 80 120 134 139 143 145 147 150 153 156 158 159 158 159 159 159 158 158 163 169 173 173 171 168 169 171 174 177 179 181 183 183 182 181 181 180 180 181 184 186 187 187 187 187 187 188 190 193 194 194 194 195 197 199 200 199 200 200 201 202 202 201
21 22 23 23 23 23 23 31 73 121 133 136 140 144 148 151 154 156 156 156 157 158 160 160 161 165 171 173 172 170 169 170 174 177 179 181 183 183 183 183 182 181 180 180 181 183 185 187 188 189 189 189 190 193 196 196 195 195 196 197 199 200 200 200 201 202 202 203 202
19 19 20 20 20 20 20 21 29 59 115 130 136 141 146 150 153 154 155 156 157 159 160 162 163 168 174 174 173 171 171 173 177 180 182 183 183 184 184 183 182 181 181 181 182 183 185 186 188 190 191 191 193 195 197 197 196 196 196 197 199 201 202 202 203 203 203 203 203
18 18 18 17 17 17 18 20 21 27 46 100 128 138 145 150 154 156 156 157 159 161 162 163 165 170 176 177 174 173 174 177 179 181 183 184 184 184 184 183 182 182 182 183 184 185 186 187 188 189 191 192 194 196 197 197 196 196 196 197 200 202 203 203 204 204 203 204 204
16 16 15 15 15 16 17 19 21 23 28 39 78 126 142 148 153 155 156 158 161 163 164 165 167 173 178 179 176 175 177 179 181 183 184 184 185 184 184 183 182 183 183 184 185 186 187 187 188 189 191 193 194 195 196 196 196 195 195 197 200 202 203 203 203 203 203 204 205
14 14 13 14 14 15 16 17 20 23 26 29 34 57 122 145 150 153 155 159 162 164 165 167 171 176 180 181 178 177 179 181 183 184 185 185 185 185 184 183 182 183 184 185 187 187 188 189 189 190 191 193 195 195 195 195 195 195 195 197 200 202 203 203 203 202 202 204 205
13 13 13 14 14 15 16 18 19 21 24 25 26 28 40 115 147 154 157 161 163 165 167 171 177 181 185 184 182 180 181 183 185 186 186 186 186 185 185 184 183 183 184 186 188 188 189 190 191 191 192 193 195 195 195 194 194 194 195 197 199 200 201 201 201 201 202 204 206
13 14 14 15 15 16 17 18 19 20 20 20 21 21 22 27 89 155 163 167 170 172 174 178 183 188 190 189 186 184 183 184 185 187 187 186 185 185 185 185 184 184 185 187 189 189 190 191 192 193 193 194 195 195 195 194 194 194 195 196 197 198 199 200 199 199 201 205 207
13 14 16 17 17 17 17 17 17 17 16 16 16 16 17 18 19 46 176 179 182 184 186 188 192 194 195 193 189 187 185 185 185 186 186 185 184 183 184 185 186 186 188 191 192 192 192 192 192 194 195 196 196 196 196 195 195 195 195 195 195 196 197 198 197 197 199 202 204
12 14 16 17 18 18 18 17 15 14 13 13 13 13 14 16 16 11 326 211 203 201 200 202 203 202 201 198 194 191 189 189 188 188 187 186 184 183 184 186 187 189 192 195 197 197 197 195 194 194 195 196 196 196 197 197 198 197 195 194 193 193 194 195 196 196 197 199 201
10 12 15 16 17 18 17 16 14 13 12 12 11 11 10 11 12 11 358 291 234 222 217 215 215 213 209 204 200 197 196 195 195 194 192 190 187 185 185 187 189 192 195 200 203 204 203 202 200 198 197 196 195 195 197 199 200 199 197 195 193 192 191 191 193 195 196 196 198
8 9 11 14 16 16 15 15 14 13 12 12 10 8 6 6 7 8 5 346 281 243 232 226 225 222 217 213 208 204 203 201 201 199 197 194 189 187 188 190 192 196 199 204 207 209 209 208 207 205 201 197 195 195 197 199 200 200 198 196 195 193 191 190 190 192 192 193 195
6 7 8 11 12 13 14 15 14 12 11 11 9 8 5 3 3 4 5 1 337 272 244 235 231 229 225 221 216 212 209 207 204 202 200 197 193 191 192 194 197 201 204 208 210 212 213 213 212 210 207 201 197 197 199 200 200 199 198 197 196 195 193 192 191 190 190 190 190
4 4 6 7 8 9 10 12 11 10 9 9 9 8 6 2 359 359 1 3 358 330 269 243 235 231 227 225 221 217 214 211 208 204 201 198 196 197 198 200 203 207 210 212 214 215 216 216 216 214 211 206 201 200 201 202 200 199 198 198 198 197 195 193 192 191 189 188 188
2 2 3 4 5 6 6 7 7 7 8 9 9 8 5 1 357 355 355 357 357 351 321 265 243 234 230 227 224 220 217 214 210 206 202 200 200 201 203 206 208 212 215 217 218 218 218 218 217 217 214 210 206 204 203 203 202 200 199 198 198 198 196 194 193 192 190 189 189
360 360 0 1 1 2 2 3 4 4 6 7 7 7 4 360 355 351 348 349 351 353 347 314 265 245 236 231 227 223 220 217 214 210 207 204 204 205 208 211 213 216 219 220 221 221 220 219 218 217 215 212 209 206 205 204 203 202 201 200 199 197 195 194 193 193 192 191 191
357 358 357 357 357 357 358 359 1 1 2 3 4 4 2 358 352 348 346 346 348 351 352 346 318 271 248 238 234 231 228 224 221 219 217 214 212 212 214 215 217 219 221 223 223 223 221 220 219 218 216 213 210 207 206 205 204 204 203 202 200 197 194 192 193 193 193 193 193
355 355 355 354 353 352 353 356 357 358 357 358 359 0 359 355 350 347 346 347 348 348 348 348 342 321 281 251 241 238 236 234 231 230 228 226 224 222 221 220 220 221 223 224 224 223 222 220 219 218 216 214 211 208 206 205 204 204 203 202 200 197 194 193 194 195 196 195 195
352 352 352 351 349 348 348 350 353 354 353 352 353 354 354 351 348 345 344 345 346 346 344 344 343 338 320 282 252 241 238 238 237 235 233 232 230 229 227 225 224 224 225 225 225 224 223 221 219 218 217 214 210 207 206 204 203 203 202 200 198 196 194 195 197 199 198 197 195
350 349 348 347 347 345 345 345 347 349 349 348 347 348 348 347 345 342 342 343 345 344 342 340 341 341 337 322 281 250 238 235 234 233 231 230 229 229 228 228 228 228 227 227 226 225 223 221 220 219 217 213 209 206 205 205 204 203 201 198 196 194 194 195 198 200 200 198 197
349 347 346 344 343 343 342 342 342 344 345 344 343 343 342 341 340 341 342 344 344 343 340 338 337 338 340 338 321 279 246 234 229 228 228 226 225 225 225 226 227 228 228 228 226 225 223 221 219 218 215 210 206 205 205 205 204 202 200 197 195 193 192 193 197 199 200 199 199
348 346 344 342 341 340 340 339 339 339 340 340 339 338 337 335 335 338 342 344 342 340 338 336 333 331 332 334 330 311 273 244 231 225 223 222 222 221 221 222 223 225 227 227 226 224 221 219 217 215 212 207 203 202 203 203 202 200 198 195 193 192 191 192 195 198 199 199 199
346 345 343 341 339 338 337 337 336 336 335 335 335 334 333 332 331 334 338 341 338 336 334 331 328 325 324 325 324 318 300 265 239 228 223 222 221 220 220 220 221 224 225 226 225 223 220 217 215 213 209 204 201 200 200 200 198 196 194 191 189 188 189 190 193 195 196 198 200
343 343 342 340 338 336 335 334 334 333 332 331 331 331 330 329 328 330 332 334 333 331 328 325 322 320 318 318 318 317 309 289 257 237 228 224 224 224 223 222 222 224 225 226 225 222 219 215 213 211 208 203 200 199 198 196 194 191 188 184 181 180 182 185 186 188 191 195 198
341 341 341 339 338 335 334 332 331 330 330 329 329 328 327 326 325 326 328 329 330 328 325 322 318 316 315 314 314 314 311 302 279 255 239 232 230 230 229 227 226 225 225 226 226 223 219 214 212 209 206 202 199 198 197 194 190 186 182 178 174 171 172 176 177 178 181 187 191
340 340 340 339 337 336 333 331 329 328 328 328 327 326 325 325 325 325 326 326 327 327 325 321 316 313 312 311 311 310 309 305 293 272 253 243 237 234 232 230 227 225 225 226 226 224 221 216 213 209 206 201 199 198 195 191 186 182 178 175 172 168 165 165 167 169 172 175 179
Height
643 645 646 647 649 650 652 655 657 659 660 662 664 665 667 668 669 669 669 668 669 669 670 672 674 675 677 679 681 682 684 686 689 692 694 696 699 700 702 704 705 707 708 710 711 713 714 716 717 719 720 721 723 724 725 726 728 729 730 732 733 735 735 737 738 739 740 741 742
645 646 647 648 649 651 653 655 657 659 661 662 664 666 668 669 669 669 669 669 669 669 670 671 673 675 677 679 680 681 683 686 689 691 694 696 698 700 702 704 705 706 707 709 710 712 714 715 717 718 720 721 722 723 725 725 727 728 730 731 732 734 735 736 737 738 739 740 741
645 647 648 649 650 651 653 655 657 659 661 663 664 666 667 668 669 669 669 669 669 669 670 671 673 675 676 678 679 681 683 685 688 691 693 696 698 700 702 703 705 706 707 709 710 712 713 715 716 718 719 720 721 723 724 725 726 727 729 730 731 733 734 735 736 737 738 739 740
646 647 648 649 650 651 653 655 657 659 660 662 663 665 666 667 668 668 668 669 669 670 670 671 673 675 676 677 679 680 682 685 688 690 693 695 698 700 701 702 704 705 707 708 710 711 713 715 716 717 718 720 721 722 723 724 725 726 728 729 730 732 733 734 735 736 737 738 739
648 649 649 650 651 652 653 654 656 658 659 661 662 664 665 666 667 668 668 669 670 670 671 672 673 675 676 677 678 680 682 685 687 690 692 695 697 699 700 702 704 705 707 708 710 711 713 714 716 717 718 719 720 721 722 723 724 725 727 728 730 730 732 733 734 735 736 737 738
649 650 650 651 652 653 654 655 656 657 659 660 662 663 664 665 666 667 668 669 670 670 671 672 673 675 676 677 678 680 682 685 688 690 692 694 696 698 700 702 704 705 707 708 710 711 713 714 715 716 717 718 719 720 721 722 723 725 726 727 729 730 731 732 733 734 735 735 737
651 652 652 653 654 654 655 656 657 658 659 660 662 663 664 665 666 667 668 669 670 671 672 673 674 675 676 677 678 680 682 685 688 690 692 694 696 698 700 702 704 705 707 708 710 711 712 713 715 715 716 717 718 719 720 721 722 723 725 726 727 729 730 731 732 733 734 735 736
653 654 654 655 655 656 656 657 658 659 660 661 662 663 665 665 666 667 668 669 670 671 672 673 674 675 676 677 679 680 683 685 688 690 692 694 696 698 700 702 704 705 706 708 709 710 712 713 714 715 715 716 717 718 719 720 721 722 724 725 726 728 729 730 731 732 733 734 735
655 656 656 657 657 658 658 659 659 660 661 662 663 664 665 666 667 668 669 670 670 671 672 673 674 675 676 678 679 681 684 686 688 690 692 694 695 698 700 702 703 705 706 707 709 710 711 712 713 714 714 715 716 717 718 719 720 721 723 725 726 727 728 729 730 731 732 733 734
658 658 658 658 659 659 660 660 661 661 662 663 664 665 666 667 668 669 670 670 671 672 673 674 675 676 677 678 680 682 684 686 688 690 691 693 695 698 700 701 703 704 705 707 708 709 710 711 712 713 713 714 715 716 717 718 719 721 722 724 725 726 727 728 729 730 731 732 733
661 660 660 660 660 660 661 661 662 662 663 664 665 666 667 668 669 669 670 671 672 673 674 675 676 677 678 679 681 683 685 687 688 690 691 693 695 697 699 700 702 703 705 706 707 708 710 710 711 712 713 714 715 715 716 717 719 720 722 723 724 725 726 727 728 729 730 731 732
662 663 662 662 662 662 662 663 663 663 664 665 665 666 667 668 669 670 670 671 672 673 674 675 676 677 678 680 682 684 686 687 689 690 691 693 695 697 699 700 701 703 704 705 706 707 708 709 710 711 712 713 714 715 716 717 718 720 721 722 723 724 725 726 727 728 729 730 731
664 664 664 664 664 664 664 664 665 665 665 665 666 667 668 668 669 670 670 671 673 674 675 676 677 678 679 681 683 685 686 687 689 690 691 693 695 697 699 700 701 702 703 704 705 706 707 708 709 710 711 712 713 714 715 716 717 719 720 721 722 723 724 725 726 727 728 729 730
665 665 665 665 666 666 666 666 666 666 667 667 667 668 668 669 669 670 671 672 673 675 676 677 678 679 680 682 684 685 686 687 689 690 692 693 695 697 698 699 700 701 703 704 705 705 706 708 709 710 710 711 712 713 714 715 716 718 719 720 721 722 723 724 725 726 727 728 729
668 667 667 667 667 668 668 668 668 668 668 669 669 669 669 669 670 671 671 673 674 675 676 678 679 680 682 684 685 685 686 687 689 690 692 693 695 696 697 699 700 701 702 703 704 705 706 707 708 709 710 711 712 713 714 715 716 717 718 719 720 721 722 723 724 725 726 727 728
671 670 670 669 669 670 670 670 670 670 670 670 670 670 670 670 671 672 672 673 675 676 677 679 680 681 683 684 685 686 686 687 689 690 691 693 694 696 697 698 699 700 701 702 703 704 705 706 707 708 709 710 711 712 713 714 715 716 717 719 720 720 722 723 723 724 725 726 727
674 673 672 672 671 671 671 672 672 671 671 671 671 671 671 672 672 673 673 674 675 677 678 679 680 681 683 684 685 685 686 687 689 690 691 693 694 695 696 697 698 699 700 701 702 703 705 706 707 708 709 710 711 712 713 714 715 716 717 718 719 720 721 722 723 723 724 725 726
677 676 675 675 674 674 673 673 673 673 673 672 672 673 673 673 674 674 675 675 676 677 678 679 680 682 683 684 685 685 686 687 689 690 691 692 693 694 695 696 697 698 699 700 701 702 704 705 706 707 708 709 710 711 712 713 714 715 716 717 718 720 720 721 722 723 724 725 726
680 679 678 677 677 676 675 675 674 674 674 674 674 674 674 675 675 675 675 676 676 678 679 680 681 682 683 684 684 685 686 687 688 689 690 692 693 694 695 696 697 697 698 699 700 702 703 704 705 706 707 709 710 711 712 713 714 715 715 717 718 719 720 721 721 722 723 724 725
682 681 681 680 680 679 678 677 676 675 675 675 676 676 676 676 676 676 676 677 678 679 680 680 681 682 683 684 685 685 686 687 688 689 690 691 692 693 694 695 696 697 698 699 700 701 702 704 705 705 707 708 709 710 711 712 713 714 715 716 717 719 720 720 721 722 723 724 725
685 684 683 682 681 680 680 679 678 677 676 676 677 677 677 677 677 677 677 678 679 680 680 681 682 683 684 684 685 685 686 687 688 689 690 691 691 692 693 694 695 696 697 698 700 700 702 703 704 705 706 707 709 710 710 711 712 713 715 716 717 718 719 720 720 721 722 723 724
687 686 685 684 683 682 681 680 679 678 677 677 677 678 678 679 678 678 678 679 679 680 681 682 682 683 684 684 685 685 686 687 688 689 690 690 691 692 693 694 694 695 696 697 699 700 701 702 704 705 706 707 708 709 710 711 712 713 714 715 716 718 718 719 720 720 721 722 723
690 688 687 686 684 683 682 681 680 680 679 679 678 678 678 679 679 679 679 679 680 680 681 682 683 684 684 685 685 685 686 687 688 689 689 690 690 691 692 693 693 694 695 697 698 699 700 702 703 705 705 706 707 708 709 710 711 712 714 715 716 717 717 718 719 720 720 721 722
692 690 689 687 686 685 684 683 682 681 681 681 680 680 679 679 679 680 680 680 680 681 682 682 683 684 684 685 685 685 686 687 687 688 689 689 690 690 691 692 692 693 695 696 697 698 700 701 702 704 705 705 706 707 708 710 711 712 713 714 715 716 716 717 718 719 719 720 721
694 692 691 689 688 687 686 685 684 684 683 682 682 681 681 680 680 680 680 681 681 681 682 683 683 684 684 685 685 685 686 686 687 687 688 688 689 689 690 691 691 693 694 695 696 697 699 700 701 703 704 705 706 707 708 709 710 711 712 713 714 715 715 716 717 718 718 719 720
695 694 692 691 690 689 688 687 687 686 685 684 683 682 682 681 681 681 681 681 682 682 682 683 683 684 684 684 685 685 686 686 686 687 687 687 687 688 689 690 691 692 693 694 695 696 698 699 700 701 702 704 705 706 708 709 710 711 711 712 713 713 714 715 716 717 718 719 719
696 695 694 693 691 690 690 689 688 687 687 686 685 684 684 683 682 682 682 682 682 682 683 683 683 684 684 684 685 685 685 686 686 686 686 686 686 687 688 689 690 691 692 693 694 695 697 698 699 700 701 703 704 705 707 708 709 710 710 711 711 712 713 714 715 715 716 717 718
698 696 695 694 693 692 691 690 690 689 688 688 687 687 686 685 685 684 683 683 683 683 683 683 683 684 684 684 684 685 685 685 686 686 686 686 686 686 687 688 689 690 691 692 693 694 695 697 698 700 701 702 703 705 706 707 708 709 710 710 710 711 712 713 713 714 715 716 717
700 698 697 695 694 694 693 692 691 690 690 690 689 689 688 687 687 686 685 684 684 684 684 684 684 684 684 684 684 684 685 685 685 685 685 685 685 686 687 688 689 689 690 691 692 694 695 696 697 699 700 701 703 704 705 706 707 708 708 709 709 710 710 711 712 713 714 715 715
701 700 698 697 696 695 694 693 693 692 691 691 690 690 689 689 688 687 687 686 685 685 684 684 684 684 684 684 684 684 685 685 685 685 685 685 685 686 687 687 688 689 690 691 692 693 694 695 697 698 699 700 702 703 704 705 706 706 707 707 708 708 709 710 711 712 713 713 714
703 701 700 699 697 696 695 695 694 693 692 692 691 690 690 690 689 689 688 687 686 685 685 684 684 684 684 684 684 684 684 684 685 685 685 685 685 686 686 687 688 689 690 690 691 692 694 695 696 697 699 700 701 702 703 704 705 705 705 706 706 707 708 709 710 711 711 712 712
704 702 701 700 699 697 696 695 694 694 693 692 691 691 691 690 690 690 689 688 687 685 685 684 684 684 684 684 684 684 684 684 684 684 684 685 685 686 686 687 688 688 689 690 691 692 693 694 695 697 698 699 701 702 703 703 704 704 705 705 705 706 707 708 709 709 710 710 711
705 703 702 701 700 699 697 696 695 694 694 693 692 692 691 691 690 690 689 688 687 686 685 684 684 683 683 683 683 683 683 683 683 683 684 684 685 686 686 687 687 688 688 689 690 691 692 693 695 696 697 698 700 701 702 703 703 703 704 704 705 705 705 706 707 708 709 709 710
705 704 703 702 701 700 698 697 696 695 694 694 693 692 691 691 690 690 689 689 688 687 686 685 684 683 683 683 682 682 682 682 683 683 684 684 685 685 686 686 687 687 688 688 689 690 691 692 694 695 696 697 699 700 701 702 702 702 702 703 703 704 705 705 705 706 707 708 709
706 705 704 702 701 700 699 698 697 696 695 694 693 692 692 691 691 690 689 688 687 687 686 685 685 684 683 682 682 682 682 682 682 683 683 684 685 685 685 686 686 686 687 687 688 689 690 691 692 694 695 696 698 699 700 700 700 701 701 702 702 703 703 704 704 705 706 707 708
707 706 704 703 702 701 700 699 697 696 695 695 694 693 692 691 690 690 689 688 687 686 685 685 685 684 683 682 682 682 682 682 682 683 683 684 684 685 685 685 686 686 686 687 687 688 689 690 691 692 694 695 697 698 699 699 699 700 700 700 701 701 702 702 703 704 705 706 707
708 707 705 704 702 701 700 699 698 697 696 695 694 693 692 691 690 689 688 687 686 685 685 685 684 684 683 683 682 681 681 681 681 682 682 683 683 684 684 685 685 685 685 686 686 687 688 689 690 691 692 694 695 696 697 697 698 699 699 699 700 700 700 701 702 703 704 705 706
709 708 706 705 703 701 700 699 698 697 696 695 694 693 692 691 690 689 688 687 686 685 685 684 684 683 683 682 682 681 681 681 681 681 681 681 682 682 683 684 684 684 685 685 685 686 687 688 689 690 691 692 694 695 695 696 696 697 698 698 698 699 699 700 701 702 703 704 705
710 708 707 705 704 702 700 700 698 697 696 695 694 693 692 691 690 689 688 687 686 685 685 684 683 683 682 682 681 681 680 680 680 680 680 680 680 680 681 682 682 683 683 684 684 685 685 686 687 688 690 691 692 693 694 695 695 695 696 697 697 698 699 699 700 701 702 703 704
710 708 707 706 704 703 701 700 699 697 696 695 694 692 691 690 690 689 688 687 686 685 684 683 683 682 681 681 680 680 679 679 678 678 678 678 678 679 679 680 681 682 682 683 683 684 684 685 686 687 688 690 691 692 692 693 694 694 695 695 696 697 698 699 700 701 702 703 704
710 708 707 706 704 703 701 700 699 697 696 695 694 692 691 690 689 688 687 685 685 684 683 682 682 681 681 680 680 679 678 677 677 677 677 677 677 677 678 679 680 680 681 682 682 682 683 684 684 685 687 688 690 690 691 691 692 693 694 694 695 696 697 698 700 700 701 702 704